Theta_e
342 343 344 345 346 347 347 349 347 350 347 349 346 348 349 347 352 351 352 353 354 354 354 353 351 354 354 349 347 348 352 352 352 353 355 357 356 356 362 358 364 365 367 367 366 366 366 366 363 362 360 363 362 361 353 354 360 363 368 365 353 353 348 342 338 352 344 344 350 347 355 358 362 351 349 351 356 358 356 365 360 358 358 358 362
341 341 342 344 345 346 347 348 348 347 347 348 346 347 350 348 350 350 352 354 353 354 354 351 354 354 350 350 348 347 350 350 350 351 353 354 356 361 360 358 363 365 367 367 367 365 365 362 363 365 357 367 363 365 366 366 370 359 358 361 358 351 351 344 345 347 347 341 348 347 352 357 359 355 347 348 355 360 356 359 360 360 362 358 358
338 339 342 342 344 344 347 347 345 348 346 348 347 347 350 349 354 354 352 354 353 355 356 354 355 358 352 352 352 348 347 350 349 351 351 354 355 358 356 364 363 363 364 366 363 360 362 366 361 366 358 365 368 366 370 362 368 356 359 361 347 343 347 343 357 350 342 356 347 345 343 348 355 357 351 352 349 351 356 355 358 358 359 358 364
336 338 339 340 343 343 345 346 347 348 348 349 347 348 348 353 355 356 355 355 357 358 358 354 356 361 363 358 356 356 357 351 354 352 352 352 355 356 358 366 361 359 359 356 359 359 366 366 359 361 360 373 363 365 366 363 364 366 354 352 358 343 340 337 342 351 355 358 349 346 350 340 333 354 355 357 348 350 351 353 355 355 354 358 370
336 337 339 339 341 342 344 346 347 346 347 349 348 348 347 350 354 357 357 356 357 360 360 361 361 362 363 362 360 361 357 358 349 348 350 354 354 355 353 360 361 358 356 357 357 364 367 369 367 365 356 369 356 363 368 352 354 356 353 364 359 347 339 347 352 348 348 351 354 349 345 342 344 342 337 356 343 343 347 349 356 354 355 359 359
338 337 338 339 341 342 344 345 345 347 347 349 350 350 349 351 353 357 358 357 356 358 362 362 361 361 357 360 358 354 354 349 345 345 346 347 350 355 356 357 358 357 355 355 354 357 365 366 369 367 355 369 358 354 352 352 354 349 351 349 344 358 352 344 339 360 343 359 356 350 352 343 350 346 339 348 363 357 344 349 351 355 356 358 357
338 338 338 339 341 342 343 344 345 346 348 350 350 350 350 352 354 354 358 358 356 361 361 364 362 359 355 350 350 350 352 352 355 349 348 348 351 353 356 358 358 356 356 357 357 364 365 368 370 368 361 359 363 361 357 347 343 343 346 344 343 363 359 346 345 339 347 348 343 342 343 338 339 346 346 343 348 354 351 347 349 348 352 354 356
336 337 338 339 341 342 342 344 345 346 348 349 349 350 352 356 356 358 360 359 358 360 361 363 362 361 359 355 353 351 348 353 355 355 352 360 356 352 352 355 357 356 358 363 362 362 366 365 370 368 365 356 357 356 351 347 346 346 349 353 378 382 370 371 355 348 346 348 342 342 340 342 358 347 342 339 345 341 344 343 347 347 349 356 362
338 337 338 338 339 341 343 343 345 346 348 348 349 350 351 353 359 359 359 361 359 362 361 361 364 363 360 355 355 354 352 351 356 358 362 356 352 354 353 351 356 358 358 359 366 363 367 365 366 366 363 363 363 353 351 349 348 349 369 376 361 377 361 358 367 363 349 341 342 357 349 348 343 343 341 346 341 340 343 339 346 340 349 351 358
339 337 340 340 340 342 344 344 345 346 347 349 349 356 357 354 359 359 360 360 360 363 362 362 364 364 361 359 356 356 355 361 357 356 359 368 358 360 359 365 351 354 355 360 362 363 364 366 361 358 359 355 358 355 355 354 354 359 359 363 360 362 369 363 361 359 350 346 341 341 372 361 355 344 340 338 340 346 339 335 339 336 340 346 352
338 338 339 340 342 343 344 345 348 345 347 347 348 349 350 354 359 359 362 360 361 363 362 362 363 362 360 361 359 357 356 358 359 362 358 361 356 351 354 356 352 350 351 355 357 358 360 362 357 357 357 359 360 356 357 351 349 348 346 358 365 368 366 366 355 355 352 356 345 345 344 341 349 343 345 343 343 351 342 337 338 338 336 341 348
338 338 337 338 342 342 344 343 343 346 350 348 346 348 352 356 360 360 363 364 362 363 362 361 361 361 362 362 360 359 359 353 356 355 354 355 354 354 357 358 356 350 352 352 352 353 358 359 360 357 358 356 355 356 354 353 351 350 350 363 360 366 369 364 358 353 348 350 347 341 342 339 340 342 338 343 351 346 347 344 340 344 338 341 351
337 338 337 337 339 341 341 342 345 348 346 347 346 348 351 357 359 360 363 365 364 364 363 364 362 361 361 361 361 362 360 361 358 359 356 355 354 352 360 362 360 357 354 348 349 351 355 358 356 356 358 359 360 361 359 361 362 355 358 353 354 363 362 361 358 353 351 348 345 345 343 341 341 343 343 341 340 349 345 345 340 340 338 347 352
337 338 338 338 339 340 343 345 346 346 346 345 348 349 349 354 362 361 364 365 367 365 364 364 363 363 363 362 361 363 362 358 356 355 356 356 356 356 350 350 355 351 349 353 351 350 351 353 357 358 363 365 367 367 367 364 364 361 358 360 353 362 363 362 361 355 354 351 350 346 346 345 345 345 344 342 340 340 340 339 350 346 339 343 347
338 338 338 339 340 342 344 346 345 345 344 345 347 349 352 359 360 364 365 365 367 366 366 365 363 363 363 361 362 360 358 357 357 357 357 355 354 352 354 350 351 352 352 356 358 358 352 354 355 354 356 361 366 366 354 360 371 366 364 367 362 360 360 359 357 354 351 350 350 349 347 346 346 346 344 347 343 341 339 344 346 347 347 343 347
335 337 337 339 340 343 344 344 344 346 346 348 345 352 353 357 360 365 366 366 366 367 366 364 364 362 364 363 362 362 363 358 361 363 362 357 355 354 355 357 353 355 356 357 353 357 359 354 356 352 355 358 359 362 360 356 366 361 365 365 363 356 360 359 358 355 353 352 352 353 352 348 349 348 347 345 344 345 351 353 358 349 341 345 344
335 335 336 341 342 344 342 343 347 346 347 348 350 350 355 360 361 366 368 367 367 367 365 366 366 364 363 362 360 361 359 357 354 354 354 355 357 356 353 351 352 362 354 356 354 358 357 356 352 349 355 356 357 358 356 360 366 361 356 364 360 358 359 359 358 361 358 354 353 352 350 350 350 352 348 346 348 355 347 348 350 342 350 346 346
338 337 341 343 342 342 342 343 344 345 346 347 352 350 359 360 363 366 368 365 367 368 364 364 364 361 362 362 361 360 359 357 355 353 353 354 354 356 354 353 351 351 353 351 353 353 358 360 355 354 354 353 353 353 354 356 363 359 357 363 359 363 360 362 360 356 356 356 354 352 350 349 350 349 347 347 348 355 349 345 348 357 361 355 354
341 338 342 343 344 342 344 341 341 345 351 349 351 351 357 361 365 368 367 368 368 366 365 364 364 360 361 361 360 360 360 359 357 357 354 352 351 351 352 354 352 354 356 359 357 351 353 355 360 353 353 360 357 353 358 359 360 358 357 357 361 364 363 362 361 358 355 356 355 352 352 350 350 347 348 346 348 357 351 352 355 353 360 358 357
341 337 337 338 344 343 345 347 345 346 348 349 354 355 356 361 366 369 371 371 368 365 365 362 361 359 360 363 362 362 362 359 357 356 355 353 353 352 351 350 351 352 352 355 351 351 351 351 349 349 347 346 348 350 352 356 357 356 353 352 356 362 359 359 357 354 355 355 356 353 352 352 352 352 350 348 348 350 349 349 346 350 365 360 366
339 337 339 337 339 341 341 347 354 346 348 350 349 351 354 362 364 369 368 369 367 367 365 363 361 360 362 362 361 361 359 358 356 356 355 353 353 353 352 353 355 352 355 352 352 356 358 353 350 351 347 350 357 353 352 354 356 354 353 354 357 361 358 358 360 357 355 351 356 355 353 353 356 352 350 348 346 345 345 346 350 354 347 348 349
345 339 336 336 346 343 342 343 353 356 349 354 352 357 357 363 367 369 371 370 367 366 364 365 363 361 360 362 361 360 360 359 355 355 354 355 352 352 351 359 357 360 358 353 355 351 352 352 351 351 352 348 353 357 351 350 351 354 353 349 349 357 361 358 356 357 358 356 355 359 358 352 354 353 352 349 347 345 342 341 345 346 347 346 353
341 343 342 346 347 349 351 350 351 352 351 358 357 356 358 367 368 370 370 370 368 366 366 363 360 360 359 359 360 359 359 356 354 354 353 354 355 355 361 354 356 355 356 356 354 354 358 356 355 353 356 352 356 350 351 350 352 354 355 352 353 353 355 353 353 355 355 358 356 356 355 355 350 350 350 349 348 346 345 342 342 344 345 350 355
343 350 348 347 347 357 350 358 359 353 361 356 363 365 362 366 367 370 369 370 368 366 359 356 361 359 358 356 356 357 357 355 353 352 357 359 358 355 362 365 361 358 355 357 355 354 355 361 355 355 353 357 357 354 351 352 353 352 355 358 358 360 356 353 351 350 352 355 356 357 356 356 356 354 354 354 353 350 349 349 347 349 365 362 363
341 341 346 344 345 347 346 356 354 357 360 359 361 367 368 368 370 370 369 369 364 365 359 358 360 358 356 354 351 351 353 354 354 355 360 363 360 358 360 358 361 360 357 358 356 354 352 351 352 352 354 356 355 355 356 352 351 354 357 355 360 359 356 356 354 354 358 355 356 356 356 356 356 353 354 354 353 352 352 350 349 355 360 360 364
343 349 346 344 349 359 348 352 353 357 360 362 364 369 369 368 368 371 366 369 364 362 365 362 359 360 358 352 352 353 353 355 358 361 359 362 365 362 360 361 361 360 359 364 358 359 354 353 352 352 354 354 355 355 355 356 353 353 360 358 355 352 353 356 354 350 349 350 351 353 355 356 356 354 356 360 362 358 354 350 352 358 360 362 362
348 351 350 358 361 355 355 359 357 354 359 365 366 366 367 368 368 367 367 365 362 359 357 358 361 357 356 356 355 354 350 352 355 357 361 359 353 355 356 358 362 363 362 363 359 359 360 357 355 356 353 354 354 353 356 359 360 361 359 355 352 353 355 352 351 350 349 348 348 347 348 353 358 359 359 358 357 358 358 359 363 359 368 361 358
357 355 353 355 359 359 360 360 358 359 361 365 364 366 367 367 366 366 362 358 354 356 349 346 345 346 350 350 355 353 353 353 355 354 356 354 351 350 351 356 364 361 359 358 357 358 358 357 356 355 356 356 358 358 361 365 365 363 361 356 357 356 354 353 352 351 351 351 350 349 349 346 349 357 363 359 359 359 362 358 359 363 364 363 360
348 354 357 357 357 360 360 357 358 359 360 360 363 364 360 358 354 357 353 352 352 349 347 346 345 344 347 353 353 355 354 356 356 356 353 352 351 353 355 359 361 359 358 358 359 358 356 355 355 356 357 357 357 358 358 358 359 362 360 358 356 354 353 353 352 350 350 351 352 353 351 353 354 355 363 361 360 359 360 359 361 363 360 358 358
339 351 356 357 358 359 360 357 355 355 358 359 356 359 357 355 353 350 348 350 352 349 348 345 345 345 349 353 352 353 357 357 358 353 352 354 356 359 360 360 361 362 362 362 362 359 358 357 355 356 355 356 359 356 359 362 364 360 358 358 357 356 355 355 354 353 353 354 353 354 353 358 357 354 353 355 356 359 362 361 358 358 360 359 358
332 354 354 357 359 359 359 357 357 355 356 358 357 358 359 354 351 350 349 348 349 349 350 348 348 349 352 355 353 352 354 356 357 354 354 356 359 355 358 360 361 361 361 363 361 358 358 358 357 355 356 354 354 354 360 349 349 355 358 358 358 358 356 355 355 353 351 351 352 354 355 356 356 355 354 354 356 360 364 362 360 361 362 359 355
335 351 356 356 356 357 357 357 358 359 359 360 361 361 360 356 354 352 353 353 351 349 349 349 350 350 355 356 354 355 356 356 357 357 358 359 360 359 359 359 360 358 362 361 359 359 360 359 357 356 355 354 355 359 345 346 350 349 357 356 354 353 357 359 356 353 351 351 352 352 349 349 350 349 352 352 357 362 360 358 356 355 353 352 352
334 345 354 354 355 356 357 356 358 359 359 359 361 360 358 358 356 356 356 353 350 349 349 352 355 355 357 357 357 357 357 357 357 358 357 358 358 358 358 358 358 360 360 359 358 358 355 355 354 353 353 355 355 356 340 343 343 342 347 353 353 356 358 358 359 357 349 349 350 346 347 347 349 356 356 355 355 357 361 360 358 355 352 350 342
335 341 354 356 356 356 356 357 358 358 358 361 361 359 358 358 358 357 355 354 352 351 353 354 356 356 356 357 357 357 356 357 358 358 358 358 358 357 358 360 360 360 359 358 358 357 357 357 354 354 353 349 352 351 338 340 340 340 343 352 352 355 355 356 357 357 355 354 348 345 346 345 348 352 352 353 354 354 354 354 353 352 351 354 354
336 338 353 356 356 357 356 356 357 357 359 359 359 358 358 358 358 356 357 356 356 355 354 353 354 354 355 356 357 357 356 356 357 358 358 357 357 357 358 359 359 358 356 356 356 356 356 356 355 355 354 351 351 344 336 338 335 336 339 350 354 353 353 355 357 357 355 352 352 350 348 347 349 350 354 353 349 349 350 349 348 348 350 350 353
335 330 346 356 356 355 355 356 358 358 358 358 356 357 356 357 358 357 357 358 356 355 353 353 352 352 352 355 357 356 356 357 357 357 356 356 356 357 357 358 358 358 358 358 358 357 356 356 355 353 353 350 355 337 340 338 337 336 343 352 354 355 354 355 354 356 355 354 354 352 351 351 351 353 348 343 346 348 347 348 349 349 349 351 353
337 337 337 354 356 355 354 357 356 357 358 357 357 357 356 356 356 356 357 357 356 353 352 351 351 353 354 356 356 356 356 357 357 355 356 355 357 357 358 358 356 356 356 356 356 358 357 356 355 353 350 351 354 342 331 333 334 332 343 354 354 351 352 352 351 354 355 355 353 352 352 351 350 349 333 326 334 348 346 346 347 346 347 347 348
342 344 344 348 354 354 354 354 354 354 355 359 360 358 358 356 355 356 356 355 355 354 354 353 352 354 355 354 354 356 355 355 356 355 355 356 358 358 357 357 354 354 356 356 359 356 357 355 353 353 352 351 351 348 333 329 327 327 347 351 353 354 351 352 351 351 352 351 352 356 355 352 351 342 325 326 330 343 343 342 341 339 338 339 341
344 342 345 346 351 354 353 354 354 352 355 358 359 358 356 355 354 353 353 353 354 354 353 353 353 355 355 355 357 357 356 356 355 355 356 356 357 357 358 360 359 357 357 359 355 353 354 352 351 351 354 353 354 347 324 325 325 327 340 351 352 352 348 348 349 347 350 350 350 352 352 349 342 330 320 322 326 336 337 337 337 335 334 334 337
343 342 343 347 357 355 352 352 352 355 358 358 357 356 356 354 352 353 353 353 354 355 357 357 356 357 357 358 358 357 357 357 356 355 357 360 360 358 358 359 359 358 355 354 354 349 347 349 349 351 353 353 354 352 336 322 323 325 331 347 350 350 349 348 347 349 348 349 350 348 337 326 322 319 316 316 317 323 331 332 332 331 330 331 332
342 342 346 348 353 351 351 354 356 358 357 357 356 356 355 355 354 352 351 353 355 356 357 358 358 358 359 359 359 359 358 357 357 357 360 359 360 359 359 357 358 359 358 356 355 353 347 347 348 354 357 356 353 347 333 318 319 323 328 339 347 347 345 346 348 348 347 347 349 345 332 323 318 316 315 313 313 316 324 329 332 331 331 328 327
339 344 347 349 348 351 354 355 358 357 356 356 356 356 355 354 352 351 353 356 357 357 357 357 357 357 356 357 357 359 358 357 359 359 357 357 360 361 355 356 360 357 353 354 354 355 355 357 353 355 351 354 356 352 341 323 319 318 320 331 344 345 340 343 346 346 345 345 346 345 336 325 316 316 314 311 310 313 317 328 333 319 317 318 328
342 347 348 346 348 350 352 355 355 355 356 356 356 354 353 353 351 352 354 356 355 354 356 357 358 356 356 355 357 355 356 355 355 356 354 354 357 358 356 359 354 351 352 351 350 353 354 354 357 354 358 356 352 349 342 336 321 316 317 321 326 339 328 347 343 342 343 344 345 342 335 327 316 313 310 310 310 310 321 329 316 314 316 318 326
345 346 346 348 349 350 354 357 354 357 359 357 357 355 354 352 353 356 354 354 355 355 357 355 355 354 354 354 354 353 353 352 352 354 354 354 353 354 354 353 352 353 353 353 355 351 352 350 347 355 352 356 351 347 342 339 329 318 316 316 318 319 327 338 341 340 342 343 344 342 335 312 307 304 304 309 312 317 327 316 313 316 320 325 329
342 345 350 349 348 349 351 352 353 355 357 360 357 355 355 353 356 359 358 356 356 355 354 353 352 351 351 350 351 350 348 348 348 348 351 351 349 351 352 356 358 352 352 349 350 349 351 351 355 352 352 356 352 350 344 338 332 324 317 314 316 317 318 321 339 341 341 343 335 322 314 310 311 309 309 311 316 321 315 313 314 317 326 329 333
342 346 351 356 356 354 352 350 351 353 355 360 357 355 356 356 356 359 358 358 355 354 354 353 349 348 346 346 345 344 345 348 346 347 346 348 346 346 347 351 348 347 349 350 351 349 347 349 352 356 354 354 352 354 350 343 340 339 332 321 319 322 338 332 338 342 339 330 323 319 316 313 316 319 327 330 331 335 328 325 323 325 330 332 336
346 351 354 355 352 350 350 350 349 351 354 354 355 355 356 358 359 354 354 357 356 355 354 352 351 344 345 348 345 342 342 343 344 344 344 343 348 344 342 348 347 342 343 343 345 346 345 344 348 350 352 355 354 351 350 350 351 350 346 340 329 331 334 337 337 340 339 339 339 335 332 326 325 329 330 333 334 335 334 331 331 332 333 336 337
354 354 353 351 351 350 349 348 350 351 354 352 352 352 354 353 351 351 354 355 356 352 348 347 343 342 345 343 341 342 343 339 339 341 341 339 341 342 342 345 348 343 342 342 341 345 342 340 342 347 351 350 348 340 337 337 337 336 340 342 341 341 337 337 333 327 327 330 332 335 333 334 335 334 334 333 333 333 333 334 335 336 336 337 337
353 352 352 353 352 349 350 349 350 351 351 352 350 349 351 351 352 355 357 353 350 349 348 344 341 340 344 349 338 340 341 340 342 349 346 344 345 345 350 346 339 340 339 336 337 337 339 337 338 341 340 342 344 338 330 312 317 310 321 329 331 326 324 329 322 311 320 326 330 333 335 337 337 336 337 338 338 338 336 337 339 343 342 340 337
353 352 352 354 355 354 351 352 353 353 351 353 353 355 353 350 354 356 357 357 357 352 351 344 343 340 339 340 338 338 342 346 339 340 343 339 324 311 320 347 338 321 310 307 315 331 329 336 340 336 333 337 336 330 308 300 298 298 299 300 301 299 300 312 312 309 318 323 328 331 334 336 338 338 336 337 337 340 338 337 341 339 338 342 336
348 347 350 351 352 354 354 354 354 355 354 353 354 352 356 356 359 358 356 357 355 352 348 351 353 345 344 347 342 341 348 351 349 345 347 345 342 336 303 305 317 314 308 298 297 300 306 310 324 335 319 309 311 303 298 297 297 296 296 296 297 297 296 296 300 315 324 328 330 331 333 336 338 335 334 333 334 334 333 333 336 334 333 332 334
Wind_Speed
12 12 13 14 14 12 12 12 12 12 12 12 12 13 14 11 11 11 9 11 10 8 8 7 7 6 5 7 7 7 5 5 10 7 3 4 7 9 7 7 6 6 5 5 5 6 4 3 3 4 3 2 2 3 3 2 3 2 1 2 2 5 4 5 6 1 8 6 4 2 2 2 1 5 8 5 3 2 2 1 3 8 9 5 2
12 12 13 14 12 14 12 11 12 13 11 14 12 13 13 14 13 12 9 10 10 10 8 8 6 7 7 6 7 8 6 4 4 9 12 9 9 7 8 7 7 6 5 5 5 4 4 3 4 3 4 2 3 3 2 3 3 2 2 3 3 4 3 3 2 2 4 4 2 2 3 1 1 1 8 5 4 2 4 6 2 3 6 4 5
12 13 13 13 14 14 12 12 12 12 13 14 13 14 12 12 10 9 9 10 10 9 8 6 6 7 7 5 5 6 8 6 7 6 10 12 10 9 7 5 7 6 6 5 5 5 4 3 3 3 5 2 2 2 2 3 1 3 4 2 4 4 3 4 1 2 1 2 4 3 2 1 3 1 1 5 6 5 6 6 4 5 7 7 5
14 14 14 14 13 13 12 12 12 12 12 13 13 14 12 10 10 10 9 10 9 9 8 8 7 6 4 4 5 3 2 6 5 8 7 10 9 9 6 5 8 8 8 8 6 5 4 3 4 4 4 2 4 2 2 2 2 2 4 4 2 4 3 5 5 4 2 1 2 0 3 1 1 1 3 2 6 7 7 8 8 5 2 6 2
13 14 15 14 14 14 12 12 12 12 12 13 13 12 10 14 11 10 8 8 10 8 8 6 5 6 4 5 5 4 1 3 5 6 6 6 9 9 9 8 8 7 8 7 7 5 4 3 3 2 5 2 3 2 0 3 4 4 6 3 3 3 5 3 2 1 2 3 1 1 2 1 2 3 4 1 3 5 7 10 6 6 8 4 4
13 14 15 15 14 14 13 13 13 12 12 12 12 12 12 12 13 10 7 7 10 10 8 6 5 4 6 3 4 5 5 7 7 7 7 7 9 8 8 10 9 8 7 6 7 5 5 4 3 2 5 3 4 4 4 5 4 5 4 4 6 3 2 4 5 1 4 2 4 4 2 2 2 1 2 3 1 1 5 10 11 8 4 2 5
13 12 14 15 15 15 15 13 13 13 13 12 12 13 13 12 13 13 8 7 9 9 9 6 5 5 6 7 6 5 5 5 4 6 7 7 6 8 7 7 8 8 7 6 5 4 5 3 3 3 3 4 3 4 4 6 6 6 5 6 7 1 3 4 4 5 5 4 4 6 6 7 6 2 1 1 1 3 2 7 5 11 9 9 7
9 15 13 14 15 15 15 15 13 13 13 13 12 13 13 10 13 11 8 8 7 9 9 7 6 6 6 7 6 6 8 5 5 4 5 3 3 7 7 7 7 6 5 5 5 4 4 4 3 3 3 4 5 5 5 5 5 6 6 5 1 0 1 3 1 2 4 3 5 4 6 4 1 3 4 3 4 2 2 2 9 9 9 10 7
11 9 10 13 16 15 14 15 14 14 12 10 13 13 13 13 12 11 10 8 8 11 10 9 6 7 8 7 6 5 6 7 4 4 3 7 8 5 6 8 7 6 5 4 3 4 4 4 5 3 4 4 3 5 5 6 6 5 3 2 4 0 1 2 2 2 4 6 5 2 3 3 5 5 6 3 4 2 2 3 1 2 11 6 7
8 13 15 15 12 12 9 11 14 10 9 12 7 6 3 10 11 13 11 9 8 12 10 10 8 8 8 8 7 6 5 4 4 6 5 2 5 5 5 3 8 8 7 5 5 4 3 4 4 7 6 7 5 5 4 5 4 4 4 2 1 0 0 1 2 4 4 5 7 6 2 1 1 4 5 4 3 2 3 5 3 4 4 5 8
14 12 12 13 11 11 9 9 5 11 14 12 11 13 16 11 13 12 11 10 9 11 12 11 9 9 8 8 7 6 7 4 1 3 5 5 5 6 6 6 5 7 8 7 8 8 8 7 7 7 7 6 5 5 4 5 5 4 5 3 3 2 2 2 5 4 4 4 6 6 6 3 5 4 4 4 2 1 3 5 7 6 7 1 4
13 14 14 12 11 12 12 15 16 10 1 2 12 14 11 12 13 13 11 11 9 12 12 12 10 10 8 9 7 7 6 6 6 6 6 5 5 5 5 5 5 7 7 7 8 10 7 7 7 7 6 6 6 5 6 5 5 5 5 3 4 3 2 3 4 4 6 5 5 7 6 6 6 6 6 3 1 3 1 2 5 3 5 2 7
16 14 14 13 12 12 11 11 11 13 8 9 11 14 13 13 16 15 13 11 9 13 13 12 10 10 9 9 8 6 7 5 7 7 6 6 6 6 5 4 5 5 5 8 10 11 7 7 7 6 5 5 5 4 5 6 4 4 3 4 4 4 4 4 5 5 6 5 5 6 6 7 7 5 6 5 6 5 6 3 3 4 5 2 1
16 15 14 13 12 11 12 9 7 7 16 14 11 9 13 14 15 16 14 12 9 11 12 12 11 10 8 8 8 7 6 6 5 7 7 5 6 5 8 8 6 7 8 6 8 11 9 9 6 5 4 4 4 4 4 4 4 3 4 3 5 3 4 5 5 7 6 7 6 7 6 7 6 6 4 3 5 6 4 6 2 1 4 2 2
18 14 15 14 13 12 10 9 8 11 14 15 14 11 10 14 14 14 13 13 11 12 11 12 11 10 9 9 9 8 8 7 6 6 6 7 7 8 6 8 8 7 7 5 5 4 8 6 9 8 6 5 4 4 6 4 2 4 3 3 3 3 5 5 5 8 8 8 7 6 7 7 7 6 7 4 7 7 5 3 2 2 1 2 1
14 16 16 16 17 15 12 10 9 9 12 9 11 8 8 12 14 14 14 14 13 12 12 12 11 11 10 10 10 9 7 8 6 5 5 7 8 7 6 6 6 6 6 5 6 4 3 5 6 9 8 8 7 5 5 5 3 4 3 3 4 6 2 7 5 7 8 9 7 5 5 6 5 6 7 7 6 4 3 1 0 4 4 3 1
15 16 15 14 14 11 13 16 10 7 9 6 8 9 10 12 15 14 13 14 13 13 13 12 11 10 11 11 11 10 11 11 10 11 11 9 6 6 7 9 8 3 6 6 7 5 6 5 6 9 7 6 6 6 6 5 4 5 6 4 5 6 4 5 4 3 5 8 7 9 8 6 6 5 6 7 5 4 5 4 3 4 2 2 2
10 14 11 13 15 14 13 12 19 20 16 14 10 9 11 14 15 15 14 15 13 13 13 12 11 9 8 10 11 11 11 11 9 10 9 7 8 6 6 6 9 9 7 7 6 5 3 5 5 5 4 6 7 7 7 7 5 5 6 4 5 4 5 4 3 5 7 5 7 8 7 7 5 6 6 7 6 4 4 4 4 2 1 2 3
6 11 9 10 12 15 12 13 15 10 8 12 13 14 14 12 14 15 15 14 14 12 12 11 9 6 8 11 13 11 10 9 7 6 8 8 9 9 9 7 9 7 5 4 4 7 6 4 3 5 5 3 6 6 5 6 6 6 6 6 5 4 4 4 4 4 5 5 5 8 7 6 5 8 6 7 4 2 4 4 3 4 1 1 2
4 10 12 11 10 10 9 8 10 12 11 7 8 1 11 13 13 12 12 12 13 14 12 10 8 8 9 11 11 9 9 9 9 9 9 10 10 9 8 8 9 6 7 5 6 8 6 5 7 9 9 8 7 7 7 7 7 6 7 7 6 5 5 6 6 6 6 5 5 6 7 6 5 5 5 6 5 4 4 4 4 4 1 2 3
8 10 10 12 13 16 16 12 7 13 12 13 15 16 14 10 12 13 14 13 13 12 10 9 9 10 12 14 13 11 12 11 11 11 10 10 8 9 9 8 6 9 6 7 7 4 2 5 8 6 8 5 4 6 7 6 7 8 7 6 5 6 8 7 5 7 6 7 5 5 6 7 5 5 5 5 6 6 5 4 4 4 5 4 4
1 8 11 10 6 14 13 12 8 8 12 10 11 7 10 10 10 11 12 11 13 10 10 10 9 9 13 14 14 13 12 10 11 11 9 7 6 7 8 4 6 4 4 7 6 8 7 7 6 6 5 7 4 6 8 7 7 5 8 9 9 6 4 6 5 6 6 7 6 4 5 7 5 6 7 8 7 7 7 6 4 4 4 4 4
5 6 8 4 2 4 8 10 10 9 8 6 10 11 9 10 10 10 11 11 11 11 8 7 11 12 13 13 13 12 11 12 12 10 10 8 7 5 3 6 6 5 6 5 5 6 4 5 5 5 4 4 3 5 4 6 5 5 5 5 5 6 7 8 7 6 7 5 7 7 8 7 7 6 6 7 8 8 7 6 7 4 5 3 4
3 3 4 6 5 4 6 5 9 7 6 9 6 6 7 8 9 9 11 11 11 10 9 11 11 12 14 13 12 11 12 11 10 8 6 6 6 7 3 2 3 5 5 5 5 5 7 3 5 5 6 4 3 4 4 5 4 6 4 4 5 4 4 5 6 8 8 7 7 7 8 8 5 6 5 5 5 6 6 5 6 5 2 2 1
7 8 7 10 9 8 9 6 7 5 6 8 8 7 8 8 8 10 8 11 10 9 12 13 11 11 13 10 11 10 9 9 7 5 4 3 4 4 3 5 3 3 2 4 7 7 7 10 9 7 7 6 6 5 5 6 6 5 5 2 1 3 5 7 6 6 6 6 8 8 9 8 6 7 6 6 5 6 6 6 6 3 2 2 2
15 7 11 12 7 7 10 8 7 7 6 7 8 7 8 8 8 7 8 9 10 10 9 8 8 9 8 9 8 4 5 10 8 6 3 3 3 3 4 4 5 3 2 4 4 3 3 5 9 9 8 7 6 6 6 5 6 5 4 1 0 4 6 5 4 4 5 7 10 9 8 7 7 7 6 4 3 5 5 6 6 3 3 2 2
6 7 6 5 7 10 12 10 10 10 6 7 7 7 7 7 7 7 7 6 3 3 5 5 5 8 8 5 5 8 8 6 4 5 4 4 5 8 6 1 3 4 2 1 3 4 4 2 5 7 9 7 7 7 5 4 3 3 2 3 3 3 1 1 1 5 4 4 2 4 11 13 9 6 7 5 4 4 3 4 3 3 0 0 2
4 6 8 8 8 8 8 9 8 7 6 5 5 5 6 6 4 2 3 6 8 11 13 9 3 7 5 3 4 10 11 10 8 5 2 3 3 2 2 8 1 2 2 3 5 6 5 5 4 4 4 4 5 5 4 2 3 4 3 2 3 3 2 2 3 4 4 3 5 2 2 7 13 10 2 2 2 3 3 3 4 2 2 3 3
7 9 8 8 9 9 9 10 8 6 6 5 4 3 6 7 5 4 7 11 14 9 7 6 7 6 2 4 5 7 9 7 6 6 7 5 5 5 7 7 3 3 4 5 6 6 7 6 5 4 5 5 3 2 3 3 4 4 3 3 4 3 3 3 3 4 4 4 4 5 4 6 5 18 17 6 5 6 4 5 4 3 4 4 5
8 8 10 10 10 9 10 12 11 9 9 5 6 5 7 7 6 8 9 6 11 12 11 8 3 5 3 3 4 6 7 7 6 5 5 4 5 5 5 4 3 3 4 4 4 5 5 5 5 5 5 4 3 4 5 8 5 4 4 3 3 3 4 3 3 4 5 5 5 5 6 9 7 10 15 18 17 14 12 9 6 4 5 4 5
13 6 9 10 10 10 10 11 12 13 12 10 9 8 9 10 9 8 9 9 8 6 7 5 4 5 4 4 4 5 6 6 5 5 5 4 5 4 4 3 3 3 4 3 3 4 4 4 5 5 3 3 5 6 7 7 9 7 5 3 3 4 4 5 5 4 4 4 5 5 3 4 6 6 6 12 17 19 13 10 11 11 8 7 7
5 8 8 10 10 11 11 11 10 8 9 8 7 6 8 10 10 9 6 6 6 7 7 7 6 5 5 5 5 5 6 6 5 5 5 4 3 4 3 3 4 6 4 2 4 4 3 4 3 3 3 4 4 4 3 4 4 4 4 4 4 4 4 4 5 4 2 6 7 5 7 2 6 11 11 9 12 12 12 10 10 11 11 12 10
3 12 7 10 10 10 10 11 9 8 7 8 7 7 8 9 8 6 6 7 8 8 8 7 9 9 8 6 6 6 6 7 6 6 5 5 5 5 5 5 6 4 3 4 5 4 4 2 3 4 3 4 7 4 5 6 6 6 5 3 3 3 3 3 2 3 4 3 1 2 7 7 7 12 8 5 6 7 8 10 8 8 10 11 12
5 13 6 8 9 9 9 9 9 9 9 7 8 9 9 8 7 7 8 7 8 8 7 8 8 7 7 5 5 5 5 6 6 6 5 5 5 6 5 4 3 2 3 3 3 3 2 2 2 1 1 4 4 7 3 5 4 6 6 3 3 4 3 4 3 2 4 5 7 7 6 5 4 4 4 7 5 5 5 6 6 8 8 11 13
9 13 5 8 9 10 10 10 9 10 9 8 9 10 9 9 8 8 7 8 8 8 7 7 6 6 5 5 4 5 5 6 6 5 5 5 5 4 4 3 2 2 3 3 4 3 2 2 2 3 3 4 3 3 1 1 6 5 1 2 3 4 4 3 3 2 2 4 5 5 6 6 6 5 4 2 3 4 5 5 5 7 9 9 8
11 7 14 7 10 10 10 10 9 10 9 9 11 10 9 9 8 7 6 7 8 8 8 6 7 6 5 5 6 5 5 5 5 5 5 6 5 5 5 4 4 3 3 3 2 3 3 3 2 1 1 3 3 3 2 3 1 2 1 2 3 3 3 3 2 2 3 3 3 3 4 4 3 4 3 6 4 3 4 5 5 6 8 8 7
10 11 11 4 8 10 10 9 9 9 9 9 10 11 10 9 8 6 6 6 7 8 7 7 7 6 5 4 3 3 3 4 4 5 5 4 5 4 3 3 2 3 3 4 3 1 0 2 2 1 2 4 2 2 2 2 2 4 2 2 2 2 2 2 3 4 3 4 3 4 4 3 3 0 6 4 6 7 4 5 5 6 6 7 7
9 7 3 5 4 9 9 10 11 11 11 9 9 10 10 9 7 6 6 6 6 6 6 7 6 5 5 5 4 4 3 3 3 4 4 3 3 2 2 3 3 3 4 2 3 2 1 1 3 3 3 2 3 1 4 3 3 3 3 2 3 2 2 1 3 4 4 5 6 9 6 5 3 3 4 7 7 6 4 4 5 6 7 8 8
11 8 7 7 7 8 10 10 11 12 9 10 11 10 10 9 7 5 4 5 6 7 6 5 6 6 6 5 5 4 4 4 3 3 2 3 2 2 3 4 4 3 2 1 1 1 1 2 2 3 6 4 3 1 6 5 3 3 3 3 3 2 2 3 1 4 4 5 4 5 6 6 8 6 6 6 7 6 3 4 4 5 7 8 7
11 10 9 7 5 7 10 10 11 10 10 10 10 10 10 9 7 5 4 4 5 6 6 5 5 6 6 5 4 3 2 2 2 1 2 2 2 1 2 2 1 0 1 1 2 2 3 4 3 4 3 2 1 4 5 8 5 4 4 3 3 3 1 2 2 3 3 4 4 2 7 9 10 8 4 2 1 1 1 2 3 4 6 6 5
10 8 9 7 7 8 10 10 10 10 10 10 9 10 10 8 6 4 4 5 5 6 5 5 5 5 5 5 4 4 3 2 2 3 1 2 1 1 1 1 1 1 1 3 3 5 8 8 5 5 4 3 4 8 5 5 6 7 5 4 2 4 5 4 4 3 3 3 2 4 5 6 6 3 2 2 1 1 2 3 3 3 3 5 6
9 8 7 8 8 9 10 11 10 10 10 9 10 9 9 9 8 6 5 5 6 7 7 7 6 5 5 5 5 4 4 4 3 3 3 2 2 1 1 2 1 1 1 2 1 1 1 3 4 1 0 2 8 12 6 5 7 5 3 2 1 4 4 4 4 4 4 4 3 5 5 4 4 4 4 6 7 7 7 4 1 3 7 6 6
9 9 7 12 8 11 10 11 11 11 10 10 11 10 9 9 9 9 8 6 6 7 7 7 6 6 5 6 5 5 4 4 3 3 2 2 2 1 1 1 1 1 2 1 2 1 2 0 2 3 1 5 6 7 8 6 6 7 7 6 5 3 1 3 3 4 4 4 3 4 6 8 8 10 10 10 10 9 7 2 4 8 7 7 6
12 12 11 12 11 10 9 8 8 8 8 9 9 9 9 9 10 8 8 7 6 6 6 6 6 6 6 6 5 5 5 4 6 4 3 2 2 1 3 2 1 1 1 1 0 2 2 2 2 1 2 4 7 5 7 8 7 8 9 10 8 6 3 1 2 3 4 4 4 2 3 1 3 5 4 5 4 3 4 7 10 10 8 5 3
11 10 11 9 11 11 10 10 9 9 8 7 8 10 11 11 9 8 8 8 7 7 6 6 6 5 5 5 4 3 4 4 5 4 3 3 4 2 3 2 1 2 2 2 2 3 3 2 1 2 2 1 6 6 5 6 8 7 7 7 7 6 5 3 2 3 3 4 4 4 4 5 6 7 8 7 6 7 10 11 12 11 6 5 6
15 11 10 9 9 10 10 11 10 10 10 7 9 11 10 9 9 8 8 7 7 7 6 6 6 7 6 6 5 5 4 3 3 1 4 2 4 3 3 3 3 3 3 3 3 2 2 2 2 2 1 2 4 3 5 5 5 5 4 5 6 6 6 8 7 5 6 8 7 7 6 7 8 9 7 6 7 7 10 13 13 9 5 6 6
13 12 10 10 11 11 11 11 11 11 10 10 10 10 9 8 8 9 9 7 7 6 5 4 4 5 4 4 3 4 5 3 2 2 3 3 2 1 1 1 4 2 3 3 2 2 2 2 3 3 0 2 1 5 4 3 2 2 4 4 5 5 7 6 5 3 4 5 6 7 7 10 10 12 12 10 9 5 5 8 7 6 7 7 6
15 13 13 12 11 11 11 11 9 9 9 10 10 10 10 9 9 9 9 7 6 6 7 6 6 5 3 3 3 2 2 1 3 3 3 2 1 2 2 1 3 4 2 2 2 2 3 3 1 2 1 1 4 5 4 4 4 4 4 4 3 5 5 4 4 4 5 6 7 7 8 8 8 9 8 7 7 6 8 7 8 8 9 9 8
15 13 10 9 10 11 10 12 9 8 8 7 8 9 9 9 7 8 6 6 6 7 5 6 5 5 3 3 4 3 4 4 1 3 6 6 5 4 5 6 5 5 4 3 4 4 5 5 6 5 5 5 4 4 3 3 4 5 5 4 4 4 4 3 3 4 6 7 6 6 6 7 8 9 8 7 6 6 6 8 9 3 3 3 3
11 10 10 10 9 10 11 10 8 7 7 7 8 7 6 8 9 6 4 4 5 4 3 2 3 4 5 5 3 4 1 4 2 3 5 4 6 9 7 4 4 6 11 9 6 4 3 4 4 5 5 3 2 2 6 6 5 7 7 7 4 2 2 3 6 10 6 5 5 5 6 6 7 7 7 6 5 4 5 5 2 3 4 2 5
11 10 10 11 9 9 9 9 8 6 7 7 6 8 7 8 5 4 4 3 2 6 4 4 4 6 6 7 7 4 6 4 5 6 3 4 3 6 11 13 10 7 8 10 9 7 8 9 6 3 6 11 11 9 7 5 6 5 5 3 2 2 3 3 4 5 3 3 5 5 5 6 7 5 3 3 4 4 3 2 1 2 3 3 4
Wind_Direction
178 186 178 178 166 173 171 168 168 171 169 156 167 163 149 162 162 158 167 162 153 166 170 176 177 171 193 184 177 179 184 185 154 148 173 216 203 201 178 191 165 195 191 208 217 245 264 223 166 234 230 199 188 250 228 202 168 338 87 349 218 213 242 217 238 102 130 164 236 48 323 27 12 98 122 101 110 126 42 82 37 42 356 312 205
181 182 187 176 173 173 171 172 167 173 169 159 174 161 162 165 160 162 174 155 158 168 173 183 174 180 181 190 179 175 176 184 178 160 143 218 189 207 174 184 174 186 189 202 224 219 234 238 178 190 242 182 213 247 217 344 137 204 199 199 282 270 248 253 63 61 125 136 140 70 331 291 63 96 121 133 145 114 101 69 76 126 213 257 217
182 186 187 181 175 176 168 175 173 171 172 163 174 164 168 161 155 165 170 162 163 170 168 194 178 172 190 177 199 185 172 186 178 187 166 166 175 171 185 171 165 187 185 204 209 219 220 233 182 212 208 192 216 225 83 91 126 220 276 221 227 239 259 275 285 140 216 142 170 145 129 332 321 24 353 152 153 172 138 151 200 172 217 212 176
187 186 187 184 178 178 170 174 176 171 177 166 176 166 173 151 155 164 170 167 162 166 174 191 180 167 194 158 197 246 172 174 192 172 183 163 160 175 184 164 173 188 196 188 209 207 206 217 217 174 221 163 201 208 197 138 152 280 277 265 278 313 237 213 231 132 6 132 70 200 174 190 301 267 253 246 156 174 157 157 194 164 174 257 201
193 186 188 186 180 180 176 174 179 179 178 172 178 171 180 160 158 166 166 170 157 166 176 181 181 155 202 172 202 143 299 263 187 182 189 166 164 183 182 173 184 197 187 193 214 167 218 219 242 176 187 200 205 199 67 205 201 221 239 262 223 230 277 334 356 334 234 169 135 135 100 203 221 191 200 306 194 203 192 157 94 54 258 150 244
189 192 190 183 180 183 175 181 183 181 182 178 183 173 175 165 161 165 168 171 170 166 174 180 169 175 166 180 204 185 181 196 188 193 187 177 177 192 177 180 185 206 177 201 206 176 194 198 243 236 176 203 181 201 201 230 206 219 231 254 255 191 319 330 305 152 263 124 160 190 197 215 193 253 194 214 302 87 177 136 156 157 271 225 199
187 202 188 186 183 181 182 183 189 184 184 182 186 174 179 166 161 169 168 176 172 162 170 171 170 164 176 190 200 194 177 212 201 206 189 185 183 180 179 186 182 206 192 197 199 187 174 173 228 267 204 177 207 231 212 209 225 216 221 208 234 231 198 241 255 292 327 306 241 224 199 202 232 259 352 20 122 300 247 165 136 154 185 226 193
189 200 190 192 188 185 184 189 190 190 186 183 185 176 176 165 157 167 168 173 185 154 167 173 170 165 178 196 195 203 198 197 193 224 176 123 235 177 177 182 191 200 206 190 186 184 159 172 218 240 274 214 182 224 243 232 222 219 211 220 85 136 208 178 16 317 282 279 275 282 296 272 256 263 243 164 175 218 268 190 159 173 147 180 184
238 167 197 217 192 190 187 190 193 188 182 169 203 175 179 167 155 169 166 176 183 155 166 176 171 170 180 197 196 207 208 189 186 228 227 158 213 194 171 181 193 187 215 172 210 174 164 191 191 217 242 266 220 210 224 238 256 274 303 118 89 219 305 46 81 311 290 278 296 316 309 313 323 336 322 252 218 235 241 246 147 198 138 183 171
215 200 192 209 200 189 189 189 198 188 162 181 164 46 354 176 163 167 169 175 182 157 170 175 174 176 183 199 199 192 210 202 184 185 222 128 206 184 147 197 180 190 202 178 185 169 192 204 203 207 226 237 246 243 221 231 230 243 258 251 105 126 114 299 239 225 236 272 282 299 293 96 341 294 296 312 313 70 281 279 209 217 184 188 175
202 206 199 194 191 167 168 233 162 201 186 175 163 159 192 177 163 174 169 177 178 162 171 175 180 184 188 200 202 196 200 160 204 217 192 187 212 198 172 195 200 190 196 194 188 181 192 200 208 210 212 225 239 255 258 244 234 238 258 206 147 206 239 234 252 250 261 269 280 275 283 248 171 222 245 264 301 5 316 333 335 330 323 152 156
189 199 207 204 182 190 195 190 178 189 42 176 181 172 161 162 168 171 175 178 177 164 174 179 185 184 191 193 201 197 210 184 179 219 191 199 206 205 195 191 210 198 193 184 196 202 194 191 209 216 201 218 226 231 248 242 244 226 225 192 174 194 213 239 253 258 255 243 249 268 274 275 253 222 241 238 204 205 157 239 230 246 264 353 117
197 197 193 207 201 180 192 205 198 147 156 200 213 165 168 163 170 174 173 182 173 168 178 180 185 186 188 191 194 197 203 205 178 195 195 197 200 206 198 196 205 252 202 201 197 201 194 192 203 211 218 207 220 224 225 264 274 266 257 210 200 181 207 235 239 263 262 274 267 256 249 264 275 299 316 300 264 162 182 243 291 1 337 345 113
192 194 199 197 200 196 179 188 166 157 164 183 194 171 178 172 173 176 173 175 177 171 179 180 187 184 187 186 193 190 200 206 188 197 200 197 200 217 203 203 204 219 232 223 206 196 203 193 196 215 220 226 220 232 244 240 253 263 271 264 231 193 188 213 236 242 248 248 253 263 272 268 265 259 242 276 326 303 233 225 121 254 248 282 103
186 189 192 184 190 186 173 183 175 185 188 183 172 187 171 163 175 170 170 174 174 176 178 181 184 186 182 191 190 186 196 197 199 198 201 204 203 214 221 210 202 207 228 232 238 217 202 186 185 207 211 217 221 223 232 238 260 294 284 278 269 219 207 235 220 236 246 250 244 254 272 273 287 303 294 214 219 240 267 277 187 175 303 335 264
194 188 191 181 186 176 173 185 187 189 174 172 164 159 167 162 173 171 173 172 176 178 183 182 186 186 185 192 187 189 186 193 195 196 185 201 212 214 220 239 220 190 203 228 223 236 238 214 197 203 201 199 206 221 229 226 201 242 256 262 260 257 253 209 223 243 249 256 268 282 267 262 267 278 285 295 295 282 270 320 172 173 177 254 227
195 179 189 169 170 175 180 180 148 201 188 164 168 169 173 171 176 172 173 174 176 182 180 183 184 185 188 190 190 184 191 195 197 200 205 197 211 219 224 219 230 190 204 217 225 209 221 226 215 228 199 189 194 207 220 219 208 222 234 227 251 249 237 243 230 251 283 270 256 250 252 256 254 242 249 267 278 296 301 301 299 288 207 226 206
193 182 176 166 167 179 197 191 170 181 186 161 165 190 171 182 175 170 174 176 177 176 179 183 186 185 185 192 192 191 192 198 201 201 204 207 200 201 216 229 230 214 201 212 213 223 231 227 241 253 243 196 200 212 209 216 213 223 229 225 240 249 267 274 240 223 235 250 266 273 268 259 263 258 254 254 257 263 286 269 269 270 166 199 136
196 161 151 169 168 178 185 188 194 183 144 147 165 170 180 182 173 173 175 177 175 177 180 182 181 172 188 191 197 193 193 198 195 199 201 212 222 206 212 222 223 221 192 186 218 219 216 219 244 244 244 225 181 208 198 203 213 221 229 223 227 238 253 255 258 249 242 240 256 267 285 288 282 283 291 281 284 269 241 257 240 225 191 263 165
222 176 170 178 164 176 179 190 198 153 156 151 124 151 187 175 164 170 170 169 173 176 179 178 173 180 193 189 192 194 194 198 189 200 203 209 211 210 212 230 239 213 225 190 210 222 217 214 218 229 234 230 215 206 213 204 205 220 231 228 222 217 242 250 255 245 248 244 245 261 264 258 265 269 271 276 285 279 276 276 276 289 201 179 124
196 160 169 188 180 179 183 192 161 173 167 174 171 185 185 170 170 167 171 172 175 178 170 177 181 194 189 188 191 191 198 201 201 197 204 210 210 214 209 209 224 229 214 206 212 233 195 217 233 238 236 244 207 203 204 212 194 203 214 231 232 200 210 226 229 250 257 256 241 238 260 272 285 285 274 282 282 283 285 277 269 230 226 219 207
89 171 164 174 187 166 179 183 130 156 160 165 157 168 176 166 164 163 164 169 177 170 179 183 185 198 195 191 194 193 198 202 207 201 195 203 226 221 219 224 234 226 237 223 203 213 218 220 215 213 234 243 237 207 213 222 218 210 211 221 226 223 215 218 232 233 232 252 278 281 262 260 252 262 279 284 289 292 289 292 301 299 306 289 201
114 134 145 154 77 169 159 155 150 168 173 159 160 172 168 155 160 162 165 172 174 173 163 176 185 196 196 196 195 195 195 203 210 204 204 194 208 245 218 210 207 224 213 229 233 224 224 239 239 241 249 267 279 300 257 229 231 226 213 227 244 237 219 221 227 235 241 243 247 257 270 276 265 257 254 252 259 264 269 271 274 292 295 333 25
148 219 160 150 180 146 134 124 144 157 148 156 160 149 153 159 164 161 172 168 177 173 163 189 196 192 195 194 191 195 197 199 204 207 215 202 180 199 178 85 272 199 208 214 227 266 274 259 236 239 236 263 275 247 273 283 245 233 231 225 233 258 271 257 242 238 232 229 237 247 254 257 260 266 266 279 292 297 298 307 304 300 49 25 131
196 210 191 159 188 168 166 157 149 154 153 157 158 163 151 156 157 170 165 178 180 179 178 195 185 197 189 190 191 195 192 197 205 228 218 221 222 187 183 155 195 243 276 25 26 14 317 280 252 237 244 248 249 261 259 249 255 260 255 244 304 270 254 245 261 267 258 238 226 230 242 244 252 262 260 257 251 261 270 276 277 280 326 329 94
176 177 141 166 185 155 164 165 152 162 152 143 154 142 146 155 165 161 169 183 183 190 180 180 174 202 179 189 182 113 29 26 12 356 336 248 240 193 184 147 217 171 167 162 141 168 205 274 282 257 244 244 246 251 258 273 280 273 84 97 42 308 307 15 338 335 331 335 321 300 262 246 252 250 256 264 278 270 268 276 283 317 341 1 356
147 133 145 125 118 132 151 145 138 152 149 148 154 154 156 157 160 164 180 182 209 113 55 2 357 22 4 331 103 94 109 143 241 315 330 29 16 341 328 119 219 143 161 156 176 187 195 226 270 275 259 244 240 245 250 245 249 257 163 166 189 245 32 131 272 272 258 251 285 303 318 310 285 244 244 248 271 281 290 281 279 290 63 114 281
154 140 146 140 133 134 132 116 114 127 151 131 141 141 145 151 138 117 29 57 33 46 48 48 47 126 167 183 114 118 132 145 161 189 254 104 109 125 304 292 252 183 203 240 238 232 213 212 228 254 279 280 249 233 235 213 230 235 222 180 159 190 197 226 241 259 274 307 273 285 246 275 287 289 226 197 243 289 285 275 270 260 223 238 243
199 149 152 152 148 145 140 126 126 125 141 138 92 92 57 51 37 41 50 50 67 80 139 187 192 161 77 30 89 106 108 136 153 143 171 157 167 193 209 208 202 211 220 219 236 243 241 237 236 237 248 249 257 257 236 220 238 227 209 205 180 191 187 190 222 253 269 247 246 268 256 228 250 278 274 245 227 232 242 241 246 240 257 266 261
305 185 156 152 148 145 140 134 138 157 148 143 148 175 143 138 115 67 83 141 159 170 163 178 131 79 86 135 119 101 112 136 165 157 138 155 184 202 192 195 194 214 217 223 229 237 251 257 258 261 264 267 259 256 256 250 213 225 239 216 179 180 195 199 203 222 234 231 239 230 254 273 314 320 320 322 308 279 251 259 271 271 265 251 252
282 223 154 140 141 136 138 144 150 155 159 160 153 160 144 128 115 144 162 173 165 135 95 122 139 126 145 145 143 131 138 140 166 148 147 171 193 179 215 204 207 215 223 225 248 243 233 239 251 263 278 283 292 288 296 264 223 218 243 241 207 199 198 209 210 210 232 250 253 248 231 315 322 307 264 247 257 265 271 264 262 261 261 264 272
282 271 132 134 138 137 139 140 135 133 130 126 127 124 120 123 135 150 162 126 94 97 117 132 136 146 166 159 146 149 150 149 152 152 143 170 176 187 200 215 222 222 202 180 240 244 244 247 256 272 279 272 240 254 321 283 216 195 215 252 264 255 232 198 208 210 341 332 322 0 19 323 260 241 234 243 259 262 260 262 263 262 262 258 245
73 276 143 140 136 134 135 133 128 128 127 127 128 123 107 111 129 135 118 116 118 130 138 148 151 163 163 155 157 158 155 155 163 160 172 175 186 195 206 212 222 224 199 206 216 224 238 262 305 297 329 331 301 281 214 168 158 156 174 221 275 286 271 258 246 133 132 210 221 221 232 238 235 260 279 296 317 314 310 301 285 283 278 269 264
91 275 160 135 132 132 132 125 123 125 123 119 121 112 116 120 122 125 124 131 134 137 144 143 144 147 147 149 156 153 159 159 161 162 172 181 184 203 212 208 214 209 233 241 262 253 217 162 206 106 237 264 277 60 315 282 220 184 176 193 263 268 256 262 249 210 173 166 187 231 245 257 274 273 277 271 273 288 298 311 326 309 291 282 268
57 296 205 143 132 131 128 128 127 123 117 122 117 118 121 120 121 125 138 143 137 135 131 135 127 121 141 145 155 161 159 157 164 170 178 180 185 208 211 213 189 208 229 221 231 218 230 248 213 203 209 254 248 179 215 242 261 271 322 265 277 276 269 257 257 261 189 176 184 210 238 252 262 275 265 323 330 320 301 293 294 293 292 283 285
116 297 299 146 138 136 136 126 122 122 124 131 129 125 123 119 122 132 148 134 124 123 127 131 135 143 158 163 167 160 156 163 167 177 187 193 195 197 201 175 185 203 205 216 196 221 230 234 226 225 229 267 245 149 327 302 129 146 138 282 265 276 288 295 288 262 245 220 193 180 219 255 271 262 26 16 346 298 285 296 283 275 278 284 287
143 145 271 251 143 138 127 125 130 130 132 132 134 128 127 130 135 148 144 125 120 125 135 142 145 150 160 153 119 133 172 167 168 185 196 205 194 203 190 127 210 216 213 202 198 127 165 214 215 163 253 239 262 155 165 235 186 145 184 249 295 300 318 310 303 294 294 278 259 222 219 190 240 33 64 41 358 349 333 319 316 313 302 303 298
142 148 157 286 170 131 140 137 134 135 129 124 125 130 133 130 136 142 134 130 132 124 127 131 131 136 131 121 144 187 192 164 185 187 198 201 174 156 172 170 201 217 227 202 122 116 151 236 242 224 215 249 304 221 168 131 117 193 294 305 294 279 251 247 270 279 292 296 284 292 287 265 279 82 70 41 3 353 334 337 323 318 316 304 302
133 126 122 231 187 151 139 134 135 127 132 132 133 135 132 133 142 153 151 140 131 127 134 133 133 137 139 143 158 175 160 183 186 184 193 180 183 172 190 188 194 198 203 269 109 135 142 261 252 261 264 233 228 132 104 113 119 46 346 316 311 308 309 278 327 326 286 270 280 294 350 49 78 91 71 44 22 4 350 328 316 302 292 292 294
118 134 141 219 165 143 144 138 131 131 135 133 133 136 133 136 151 166 160 136 115 120 126 135 145 146 148 161 165 161 139 154 186 164 148 109 120 168 259 226 254 42 328 96 193 135 35 321 305 268 244 225 164 112 121 113 133 117 45 358 321 316 303 305 264 228 250 248 238 110 64 61 77 83 87 114 114 36 303 305 306 288 284 287 353
123 135 140 178 154 165 143 135 134 138 140 139 136 134 135 129 138 158 167 130 125 123 127 132 137 144 148 151 148 155 162 141 87 81 99 138 135 110 152 204 222 249 196 180 180 162 165 202 230 237 241 210 123 117 111 137 106 84 61 22 314 14 14 352 332 283 249 265 164 122 95 94 107 112 102 15 336 335 285 272 273 301 313 302 308
114 151 153 145 166 159 139 140 144 145 141 136 135 134 132 136 141 154 154 138 143 144 143 143 145 139 131 131 136 141 123 112 125 126 124 94 83 82 114 103 107 233 288 324 21 208 179 149 149 107 89 72 124 130 130 101 97 99 95 88 39 49 26 329 320 328 331 24 47 138 127 126 140 161 191 209 219 225 228 240 238 230 260 279 291
143 150 147 143 173 152 149 146 152 146 141 140 138 138 140 139 141 141 142 149 140 128 125 127 127 128 136 130 124 118 111 114 115 126 113 90 92 133 41 359 334 3 320 350 56 24 80 253 150 159 203 106 114 114 120 125 127 124 123 99 87 81 346 315 330 314 319 323 337 110 156 167 195 202 208 208 209 213 229 167 218 249 252 268 280
149 144 170 174 164 150 147 151 136 136 139 140 142 138 133 131 131 137 135 135 133 124 123 121 126 130 130 129 136 151 147 154 144 143 132 169 162 141 79 35 352 344 343 324 178 345 355 319 306 116 156 114 123 127 143 137 150 163 162 156 143 156 171 258 270 265 286 292 298 340 336 322 248 259 260 241 241 217 218 243 259 260 259 268 261
138 154 166 161 143 145 143 139 144 143 139 136 135 128 127 126 125 130 133 135 136 137 135 132 129 128 141 139 166 153 139 146 137 150 156 166 124 136 152 203 155 194 204 229 244 229 222 248 199 186 159 181 136 149 148 157 159 179 188 170 161 168 213 200 223 243 255 271 283 298 303 291 290 296 287 295 283 255 240 236 238 241 237 229 222
156 160 145 119 129 144 149 146 144 139 131 127 129 131 127 126 134 133 137 138 137 142 148 146 151 163 157 140 157 141 121 119 113 165 152 171 161 175 157 172 220 225 215 234 222 244 252 225 224 179 131 129 154 176 135 151 170 184 215 201 180 201 213 215 244 304 297 293 298 289 269 273 277 268 262 249 247 238 225 230 232 223 214 232 222
136 129 131 132 151 151 148 145 140 140 136 134 133 133 132 135 142 145 138 141 137 144 150 168 163 135 133 134 145 131 144 154 172 204 175 172 236 167 73 304 265 305 28 339 351 316 343 281 329 15 331 148 106 58 95 129 141 194 206 176 191 229 237 238 246 274 293 285 272 262 243 234 233 244 239 247 252 255 228 239 242 220 223 226 203
122 136 141 153 153 148 149 143 137 135 138 139 139 136 142 149 147 137 133 136 139 155 156 166 146 136 118 132 182 146 57 321 181 153 318 85 227 125 169 195 25 31 354 328 344 24 10 359 112 195 233 48 84 78 48 43 25 13 12 13 29 35 27 15 16 355 322 302 289 275 263 247 246 252 249 239 237 226 234 243 240 220 208 214 199
135 146 157 146 151 149 137 131 127 131 130 130 134 139 140 130 119 114 131 146 153 158 164 139 134 158 152 212 129 160 164 209 281 76 66 34 17 25 49 77 45 23 25 1 344 358 22 357 351 35 13 1 56 77 67 40 56 59 48 21 23 21 9 349 38 359 313 290 277 270 260 251 244 245 246 239 227 209 219 237 247 203 215 175 79
142 147 143 139 134 125 132 128 125 132 140 140 132 124 127 127 119 134 152 154 160 174 146 166 160 149 155 193 192 130 91 349 340 138 108 85 46 55 32 45 90 55 59 52 49 55 19 347 16 60 18 18 21 77 107 89 84 71 68 73 78 77 4 330 333 314 288 287 282 282 273 271 268 244 231 227 216 185 186 204 256 142 206 77 105
134 133 131 124 119 119 116 112 111 104 98 99 100 101 88 87 86 97 104 92 78 48 24 16 38 37 22 31 9 23 81 53 9 20 69 89 76 39 45 48 65 86 76 75 73 72 52 39 26 74 61 54 93 102 107 98 83 78 70 64 35 353 4 341 327 338 302 273 287 289 289 277 257 272 305 323 333 321 326 349 19 326 357 47 119